Location: Pasadena-CA
(34.1440°N, 118.1100°W)
Time: 06:32:00
(UTC-07:00)

BlueWalker 3 - Pass Details

Date: 04 March 2024
Orbit: 485 x 495 km, 53.2° (Epoch: 25 April)

Event Time Altitude Azimuth Distance (km) Brightness Sun altitude
Rises 18:15:22 0° 330° (NNW) 2,557 5.9 -5.7°
Reaches altitude 10° 18:18:16 10° 353° (N) 1,671 4.6 -6.3°
Maximum altitude 18:20:35 16° 31° (NNE) 1,360 3.8 -6.8°
Drops below altitude 10° 18:22:54 10° 70° (ENE) 1,664 4.0 -7.2°
Enters shadow 18:23:17 - 74° (ENE) 1,761 4.1 -7.3°
